Location: České Budějovice
(48.9747°N, 14.4743°E)
Time: 19:53:48
(UTC+02:00)

ISS - Pass Details

Date: 21 July 2024
Orbit: 413 x 417 km, 51.6° (Epoch: 16 July)

Event Time Altitude Azimuth Distance (km) Brightness Sun altitude
Rises 23:48:50 0° 284° (WNW) 2,362 0.5 -18.5°
Reaches altitude 10° 23:51:29 10° 262° (W) 1,490 -0.8 -18.7°
Enters shadow 23:52:38 15° 243° (WSW) 1,243 -1.5 -18.8°
